Wetbulb
70.64 72.71 72.63 72.96 73.18 73.52 72.24 72.38 71.78 71.00 71.94 72.36 71.31 70.93 71.24 71.55 72.33 72.54 72.62 76.66 77.34 77.50 76.96 76.98 76.98 76.78 76.75 76.98 76.27 76.61 76.87 75.94 75.10 75.36 75.28 74.80 74.65 74.39 74.52 74.66 74.42 74.00 73.95
71.32 72.41 71.94 72.19 71.68 72.68 71.97 71.58 70.88 71.40 72.15 71.60 70.61 70.71 71.09 70.96 71.87 72.58 72.38 73.12 75.85 77.26 77.18 76.02 76.75 76.86 76.98 76.75 76.73 76.50 76.49 76.10 75.07 74.94 74.95 74.66 74.28 73.96 73.37 73.54 73.83 73.79 73.58
72.23 72.44 71.83 71.88 71.39 71.56 71.74 70.42 71.43 71.46 70.50 69.58 68.65 68.47 69.15 70.06 70.82 70.18 70.53 71.78 72.48 74.76 76.45 77.08 76.75 77.60 76.78 76.86 76.58 76.75 76.25 76.84 75.55 74.80 74.86 74.57 74.40 74.03 73.28 73.44 73.55 73.78 73.72
72.73 72.50 72.03 72.27 71.92 71.86 71.83 71.16 69.31 68.70 67.88 67.12 66.68 67.08 67.86 69.22 71.03 71.34 71.49 70.91 70.23 72.86 73.54 76.90 77.48 77.45 76.82 76.91 76.41 76.69 76.62 76.71 76.68 75.16 74.68 74.58 74.41 74.15 74.18 73.98 73.53 73.73 73.43
73.53 72.64 71.29 71.78 72.87 71.94 71.90 70.50 68.04 67.39 66.56 66.27 66.90 67.93 68.00 68.43 69.41 71.19 70.97 71.22 70.13 72.66 72.51 73.83 76.79 77.08 76.64 76.61 76.74 76.78 76.71 77.08 76.74 76.26 74.91 74.59 74.44 74.15 74.05 74.05 73.78 73.53 72.91
73.63 72.67 72.23 72.19 72.14 71.79 70.46 69.92 68.61 67.39 66.41 65.49 68.35 68.56 68.20 68.54 69.10 68.43 69.37 70.58 70.70 71.07 72.74 72.34 72.12 74.77 76.68 76.74 77.14 77.08 76.91 76.54 76.71 76.41 76.06 75.63 75.26 74.81 74.41 74.36 73.96 73.74 73.56
73.06 72.21 72.09 71.96 71.80 71.30 70.85 70.38 69.77 67.59 66.22 66.94 67.05 67.70 68.58 69.19 68.43 68.34 69.51 69.73 69.86 70.52 71.74 72.41 72.01 72.06 73.68 76.89 76.91 76.87 76.97 77.05 76.54 76.68 76.54 76.01 75.73 75.33 75.02 74.67 74.40 73.78 73.59
73.23 71.67 71.61 72.22 71.95 71.09 70.43 70.25 69.46 68.27 67.95 67.82 66.67 66.05 63.81 66.78 69.63 69.72 70.01 70.10 69.57 70.45 70.96 71.92 71.43 71.00 71.54 73.73 74.81 76.76 76.76 76.88 77.01 76.61 76.46 76.55 75.95 75.52 75.06 74.60 74.28 74.09 74.22
73.85 72.88 72.38 71.96 71.56 71.37 70.71 70.32 69.93 69.51 68.25 69.60 69.19 65.33 62.32 61.38 65.13 70.01 70.12 70.26 69.78 69.96 70.89 70.94 70.97 71.28 71.81 70.87 73.26 75.67 76.28 75.85 76.68 76.92 77.13 76.36 76.27 75.82 75.52 74.90 74.60 74.25 74.06
73.86 73.65 72.79 72.22 71.51 71.91 70.52 70.40 71.09 70.63 69.96 68.34 70.42 70.19 69.19 67.84 63.68 63.88 69.01 70.33 70.19 70.10 70.28 70.62 70.62 71.29 71.67 71.36 71.63 72.01 74.95 75.46 76.08 76.58 77.46 76.99 76.78 76.37 75.75 75.32 75.00 74.47 74.40
72.96 74.03 73.57 72.42 71.95 72.41 72.13 71.66 71.17 70.93 71.29 69.56 69.85 69.33 69.31 69.22 69.01 66.42 64.49 66.78 69.72 70.53 70.75 70.46 70.30 69.43 71.25 71.54 71.43 70.88 73.27 75.13 75.41 76.16 76.94 77.11 76.91 76.36 75.78 75.61 75.05 74.60 74.15
71.75 72.34 73.56 73.68 73.15 72.73 72.41 72.20 72.09 71.34 70.77 70.43 69.13 69.78 68.81 67.16 66.23 66.30 65.53 66.33 67.12 69.24 70.57 70.73 70.44 69.89 70.15 70.43 72.13 73.46 73.88 74.15 74.80 75.01 75.25 76.28 76.84 77.04 76.57 75.98 75.61 75.51 74.83
71.06 72.37 73.10 73.13 73.51 73.70 73.23 73.14 72.09 71.73 71.25 70.31 69.85 69.71 70.70 69.10 68.63 67.50 66.22 65.85 66.26 67.27 68.79 70.50 70.74 70.53 70.86 70.56 71.05 73.81 74.15 73.28 72.86 72.98 73.44 74.24 75.04 75.95 76.31 76.51 76.45 76.20 75.33
71.41 72.28 73.56 74.54 74.92 74.38 74.55 73.70 73.18 72.92 72.30 71.23 70.93 70.75 70.77 71.13 70.37 69.06 66.78 65.58 63.02 65.29 66.55 68.04 70.67 70.74 70.65 71.02 71.26 72.85 71.79 71.77 71.86 71.08 71.22 71.88 72.54 73.27 74.35 75.04 75.53 75.76 75.71
73.83 72.56 73.48 73.81 74.65 74.87 74.55 73.96 73.87 73.12 72.53 72.22 72.10 71.74 71.17 71.12 71.27 71.07 69.13 67.53 65.50 62.87 63.33 66.31 68.18 71.26 70.94 70.85 71.64 71.57 71.19 71.34 71.21 70.82 70.32 70.13 70.85 71.78 72.43 73.32 74.10 73.98 74.25
73.11 73.01 72.98 73.52 73.90 74.66 74.86 74.46 73.78 73.25 72.59 73.04 71.93 71.79 71.72 69.92 70.77 71.05 70.21 69.78 68.58 65.79 64.14 67.05 68.67 70.36 71.64 71.80 72.10 72.35 72.05 71.80 71.03 70.30 69.75 69.19 69.69 70.34 71.33 72.14 72.75 72.94 72.86
72.20 72.55 74.24 73.68 73.68 74.61 74.66 74.43 73.63 72.85 72.25 72.72 71.27 71.55 71.61 69.38 69.56 69.51 70.32 70.19 69.38 69.29 66.82 67.98 70.23 70.85 70.59 70.89 71.70 72.35 72.79 72.30 72.02 70.07 69.70 69.33 68.62 69.25 70.01 70.56 71.13 71.59 71.95
73.93 72.74 74.02 74.41 74.58 74.62 74.71 74.26 73.78 74.17 71.75 71.80 71.31 71.73 71.39 71.79 69.62 69.92 70.42 70.17 69.90 69.90 68.97 67.80 68.72 69.44 69.89 70.07 70.25 70.28 72.78 73.78 72.87 71.95 69.59 68.71 68.00 68.07 68.20 68.47 68.62 68.81 68.97
74.06 74.92 75.15 74.32 74.19 74.26 74.41 74.72 73.51 73.00 72.82 72.76 72.38 71.91 71.63 71.72 70.89 70.85 70.85 70.53 69.78 70.12 69.35 68.27 68.43 69.46 70.25 69.78 68.92 69.62 70.17 71.75 72.82 72.38 69.20 68.42 67.86 67.55 67.19 66.58 66.47 66.02 64.93
75.05 74.86 74.72 76.07 74.93 74.91 74.94 74.79 74.52 73.93 73.42 73.09 72.94 72.74 73.05 73.36 71.64 70.75 70.62 70.32 69.69 68.88 68.65 68.38 67.95 68.20 68.99 68.92 68.63 67.71 67.63 69.67 70.32 72.11 71.95 70.60 69.45 68.47 67.35 65.97 65.77 65.66 63.60
75.45 75.50 75.61 75.21 76.19 75.43 75.88 75.42 75.25 74.52 73.60 72.99 73.12 73.75 74.19 73.31 71.97 71.23 71.72 70.62 69.78 68.81 68.56 68.27 67.50 67.03 66.47 66.44 66.13 67.46 67.07 67.44 68.56 70.44 70.66 71.52 71.13 70.01 69.77 67.21 68.11 67.33 65.19
75.56 75.65 75.76 75.43 75.27 76.62 72.36 71.89 74.92 74.22 73.80 73.06 72.53 72.56 72.92 72.57 72.27 70.55 70.42 70.40 71.21 69.71 68.31 67.52 66.82 65.47 64.86 66.76 67.32 67.50 66.82 65.85 65.15 69.31 68.72 69.26 71.07 70.57 70.41 70.12 68.58 66.63 64.79
75.40 75.33 75.68 75.53 75.08 75.64 70.56 70.11 72.11 74.83 74.25 73.52 72.48 72.12 72.32 74.01 72.09 72.36 69.05 68.51 68.55 68.51 69.62 70.13 68.04 67.05 65.60 66.23 67.35 67.15 67.43 66.60 66.28 68.16 68.27 67.43 69.22 70.39 71.43 71.43 67.03 65.61 64.56
75.05 75.58 75.51 75.70 75.50 75.42 69.93 68.13 70.48 75.64 75.14 74.30 73.24 72.77 72.43 72.53 72.14 71.63 70.66 69.79 69.70 69.50 69.10 69.24 69.26 69.82 68.42 67.85 69.12 69.39 68.27 67.46 67.68 68.77 69.42 67.86 67.32 68.00 69.24 71.09 67.41 66.08 64.32
75.58 75.83 75.83 75.53 75.18 75.05 67.01 66.88 68.75 74.18 74.25 73.24 73.31 73.16 72.71 71.40 68.14 66.34 71.06 70.32 70.18 70.33 68.70 65.60 66.45 66.03 65.37 65.66 67.48 68.63 67.18 65.40 63.57 64.80 68.27 67.41 66.64 66.42 67.34 68.22 69.47 66.14 63.78
75.84 76.30 76.15 75.49 72.80 75.05 65.00 64.46 67.94 73.05 72.56 71.99 71.68 72.71 68.16 70.75 66.10 63.69 70.11 70.43 69.35 70.36 70.41 70.04 68.11 66.78 66.10 67.30 65.30 70.03 67.68 64.95 63.28 63.96 67.08 67.25 65.74 66.39 63.81 65.70 67.19 68.11 69.49
MSLP
1019.82 1020.03 1020.23 1020.26 1020.41 1020.57 1020.73 1021.13 1021.33 1021.74 1022.00 1021.95 1021.92 1021.95 1022.04 1022.08 1022.06 1022.22 1022.43 1022.30 1022.41 1022.51 1022.59 1022.84 1023.09 1023.20 1023.41 1023.52 1023.59 1023.59 1023.64 1023.86 1024.05 1024.16 1024.25 1024.36 1024.48 1024.59 1024.70 1024.72 1024.83 1024.96 1025.13
1019.40 1019.79 1020.05 1020.29 1020.58 1020.71 1020.80 1021.08 1021.45 1021.64 1021.96 1022.06 1022.32 1022.33 1022.27 1022.29 1022.25 1022.44 1022.52 1022.61 1022.50 1022.56 1022.58 1022.80 1022.96 1023.13 1023.25 1023.44 1023.58 1023.67 1023.69 1023.92 1024.15 1024.32 1024.54 1024.64 1024.77 1024.99 1025.12 1025.17 1025.24 1025.36 1025.49
1018.95 1019.21 1019.73 1020.13 1020.39 1020.74 1020.94 1021.18 1021.42 1021.81 1022.14 1022.44 1022.61 1022.66 1022.64 1022.62 1022.61 1022.59 1022.61 1022.61 1022.63 1022.52 1022.80 1022.77 1022.78 1022.96 1023.12 1023.36 1023.49 1023.64 1023.76 1023.98 1024.09 1024.33 1024.64 1024.78 1024.97 1025.18 1025.39 1025.54 1025.60 1025.66 1025.77
1018.51 1019.06 1019.43 1019.80 1020.02 1020.46 1020.86 1021.16 1021.53 1022.09 1022.45 1022.64 1022.90 1022.98 1022.99 1022.73 1022.56 1022.60 1022.71 1022.66 1022.58 1022.70 1022.77 1022.70 1022.77 1022.87 1022.93 1023.13 1023.47 1023.59 1023.80 1023.99 1024.12 1024.28 1024.60 1024.83 1025.03 1025.31 1025.54 1025.74 1025.88 1025.93 1026.01
1018.31 1018.77 1019.09 1019.45 1019.64 1020.16 1020.65 1021.13 1021.74 1021.98 1022.47 1022.56 1022.67 1022.73 1022.72 1022.68 1022.60 1022.48 1022.59 1022.50 1022.68 1022.61 1022.72 1022.77 1022.71 1022.78 1022.81 1023.04 1023.28 1023.44 1023.64 1023.89 1024.00 1024.27 1024.58 1024.86 1025.07 1025.30 1025.61 1025.82 1026.01 1026.15 1026.24
1018.21 1018.62 1018.97 1019.32 1019.47 1020.04 1020.69 1021.13 1021.58 1021.89 1022.18 1022.39 1022.74 1022.73 1022.58 1022.42 1022.36 1022.57 1022.49 1022.55 1022.56 1022.49 1022.48 1022.55 1022.68 1022.69 1022.65 1022.75 1022.99 1023.18 1023.50 1023.77 1024.05 1024.22 1024.47 1024.87 1025.09 1025.28 1025.52 1025.77 1025.99 1026.20 1026.36
1018.10 1018.46 1018.85 1019.22 1019.47 1019.89 1020.39 1021.01 1021.63 1022.09 1022.23 1022.34 1022.72 1022.61 1022.44 1022.29 1022.43 1022.56 1022.35 1022.24 1022.39 1022.28 1022.32 1022.42 1022.25 1022.53 1022.56 1022.57 1022.85 1023.10 1023.19 1023.44 1023.76 1024.04 1024.39 1024.74 1025.03 1025.22 1025.46 1025.68 1025.88 1026.11 1026.33
1017.89 1018.24 1018.61 1019.04 1019.24 1019.79 1020.33 1020.89 1021.18 1021.77 1022.02 1022.17 1022.37 1022.55 1022.48 1022.27 1022.13 1022.13 1021.91 1022.04 1021.89 1022.07 1022.14 1021.98 1022.19 1022.21 1022.36 1022.54 1022.57 1022.70 1022.95 1023.17 1023.39 1023.69 1024.08 1024.57 1024.84 1025.10 1025.31 1025.55 1025.76 1025.94 1026.19
1017.60 1017.77 1018.12 1018.60 1019.05 1019.44 1020.05 1020.42 1020.71 1021.03 1021.66 1021.82 1021.84 1021.93 1022.25 1022.14 1021.88 1021.59 1021.52 1021.71 1021.85 1021.89 1021.69 1021.71 1021.75 1021.84 1022.01 1022.24 1022.41 1022.45 1022.67 1022.85 1023.03 1023.17 1023.58 1024.16 1024.55 1024.86 1025.11 1025.28 1025.47 1025.70 1025.92
1017.35 1017.53 1017.73 1018.17 1018.76 1019.03 1019.51 1019.76 1020.06 1020.47 1020.83 1021.09 1021.55 1021.56 1021.43 1021.62 1021.87 1021.62 1021.37 1021.40 1021.48 1021.59 1021.49 1021.45 1021.53 1021.60 1021.64 1021.75 1021.90 1022.11 1022.29 1022.48 1022.70 1022.80 1023.06 1023.59 1024.07 1024.47 1024.76 1024.98 1025.15 1025.34 1025.59
1016.98 1017.12 1017.41 1017.76 1018.15 1018.39 1018.86 1019.13 1019.60 1019.99 1020.14 1020.43 1020.69 1020.91 1021.04 1020.92 1021.49 1021.70 1021.36 1021.15 1021.14 1020.98 1020.91 1021.03 1021.01 1021.17 1021.24 1021.22 1021.35 1021.53 1021.70 1021.89 1022.20 1022.49 1022.65 1023.04 1023.49 1023.89 1024.20 1024.45 1024.77 1024.93 1025.12
1017.00 1016.90 1017.02 1017.34 1017.50 1017.73 1018.23 1018.61 1018.99 1019.32 1019.45 1019.82 1020.12 1020.30 1020.32 1020.44 1020.58 1020.89 1021.09 1020.91 1020.59 1020.38 1020.40 1020.38 1020.62 1020.74 1020.71 1020.65 1020.83 1020.99 1020.98 1021.18 1021.53 1021.85 1022.19 1022.49 1022.86 1023.22 1023.55 1023.82 1024.12 1024.40 1024.59
1016.64 1016.68 1016.72 1017.05 1017.36 1017.32 1017.52 1017.88 1018.47 1018.85 1019.06 1019.32 1019.51 1019.57 1019.70 1019.65 1019.81 1020.14 1020.25 1020.48 1020.35 1020.13 1020.09 1019.94 1019.77 1020.09 1020.03 1020.09 1020.27 1020.38 1020.52 1020.70 1020.98 1021.29 1021.57 1021.94 1022.11 1022.62 1022.89 1023.17 1023.36 1023.66 1023.85
1015.87 1016.06 1016.16 1016.21 1016.46 1016.72 1016.96 1017.33 1017.74 1017.97 1018.28 1018.63 1018.73 1019.02 1019.09 1018.99 1019.17 1019.38 1019.74 1020.07 1020.16 1019.90 1019.86 1019.48 1019.24 1019.23 1019.35 1019.46 1019.66 1019.84 1020.15 1020.22 1020.43 1020.72 1021.02 1021.33 1021.58 1021.94 1022.27 1022.57 1022.78 1023.03 1023.21
1015.12 1015.36 1015.51 1015.72 1015.74 1016.13 1016.34 1016.85 1017.23 1017.45 1017.58 1017.73 1017.94 1018.13 1018.33 1018.20 1018.46 1018.58 1018.87 1019.17 1019.56 1019.92 1019.51 1018.91 1018.93 1018.38 1018.49 1018.98 1019.02 1019.23 1019.42 1019.58 1019.84 1020.09 1020.43 1020.80 1021.02 1021.31 1021.59 1021.83 1022.06 1022.35 1022.62
1014.72 1014.88 1015.14 1015.30 1015.48 1015.56 1015.96 1016.31 1016.56 1016.57 1016.93 1017.02 1017.15 1017.42 1017.58 1017.67 1017.82 1017.86 1018.07 1018.36 1018.85 1019.13 1019.36 1018.57 1018.35 1018.25 1018.19 1018.30 1018.45 1018.70 1018.76 1018.97 1019.17 1019.40 1019.66 1020.00 1020.36 1020.61 1020.76 1021.00 1021.18 1021.53 1021.79
1014.21 1014.50 1014.56 1014.70 1014.98 1015.19 1015.44 1015.76 1015.88 1016.12 1016.42 1016.49 1016.69 1016.76 1016.91 1017.32 1017.42 1017.69 1017.77 1018.08 1018.38 1018.68 1018.80 1018.42 1018.06 1017.89 1018.07 1018.01 1017.82 1018.04 1018.22 1018.27 1018.62 1018.76 1018.99 1019.26 1019.57 1019.84 1020.03 1020.20 1020.34 1020.64 1020.96
1013.39 1013.68 1013.95 1014.09 1014.33 1014.57 1014.81 1015.11 1015.36 1015.67 1015.97 1016.22 1016.33 1016.55 1016.68 1017.01 1017.35 1017.48 1017.65 1017.81 1017.81 1017.99 1018.34 1018.29 1018.00 1017.82 1017.63 1017.56 1017.55 1017.79 1017.67 1017.71 1017.77 1017.87 1018.11 1018.37 1018.57 1018.85 1019.11 1019.31 1019.48 1019.73 1019.99
1012.71 1013.05 1013.33 1013.53 1013.70 1013.90 1014.18 1014.57 1014.78 1015.00 1015.28 1015.51 1015.78 1016.08 1016.29 1016.56 1016.83 1017.11 1017.24 1017.36 1017.48 1017.66 1017.75 1017.95 1017.93 1017.56 1017.31 1017.22 1017.43 1017.44 1017.50 1017.48 1017.42 1017.10 1017.27 1017.41 1017.60 1017.85 1018.12 1018.38 1018.64 1018.86 1019.04
1011.99 1012.27 1012.51 1012.78 1012.93 1013.24 1013.59 1013.93 1014.22 1014.52 1014.73 1014.98 1015.24 1015.49 1015.67 1015.97 1016.26 1016.60 1016.81 1016.91 1017.13 1017.41 1017.55 1017.62 1017.65 1017.59 1017.42 1017.03 1017.17 1017.26 1017.33 1017.21 1017.11 1016.75 1016.54 1016.51 1016.63 1016.78 1017.03 1017.31 1017.63 1017.79 1017.97
1011.13 1011.39 1011.80 1012.08 1012.31 1012.68 1012.95 1013.29 1013.54 1013.79 1014.12 1014.45 1014.61 1014.81 1014.97 1015.23 1015.64 1015.89 1016.29 1016.58 1016.88 1017.10 1017.26 1017.47 1017.58 1017.47 1017.20 1017.07 1017.08 1016.86 1016.93 1016.77 1016.50 1016.25 1016.08 1016.03 1016.07 1016.16 1016.15 1016.41 1016.54 1016.81 1017.07
1010.49 1010.83 1011.10 1011.35 1011.75 1012.07 1012.36 1012.62 1012.91 1013.37 1013.68 1014.05 1014.40 1014.47 1014.57 1014.90 1015.18 1015.40 1015.76 1016.01 1016.37 1016.72 1016.91 1017.10 1017.15 1017.31 1017.00 1016.80 1016.71 1016.73 1016.74 1016.85 1016.67 1015.60 1015.83 1015.65 1015.54 1015.58 1015.36 1015.44 1015.34 1015.57 1015.66
1009.66 1010.03 1010.38 1010.75 1011.10 1011.46 1011.84 1012.12 1012.45 1012.83 1013.18 1013.52 1013.84 1014.16 1014.45 1014.59 1014.78 1014.94 1015.28 1015.48 1015.76 1016.00 1016.11 1016.25 1016.49 1016.43 1016.46 1016.40 1016.48 1016.47 1016.46 1016.51 1016.37 1015.73 1015.72 1015.52 1015.11 1014.96 1014.46 1014.38 1014.39 1014.50 1014.67
1008.90 1009.15 1009.58 1010.01 1010.52 1010.99 1011.38 1011.76 1012.03 1012.38 1012.56 1012.87 1013.16 1013.56 1013.92 1014.10 1014.21 1014.40 1014.65 1014.99 1015.12 1015.24 1015.29 1015.52 1015.62 1015.51 1015.57 1015.68 1015.88 1015.86 1016.03 1016.14 1016.03 1015.62 1015.53 1015.45 1014.76 1014.49 1014.04 1013.76 1013.63 1013.71 1013.86
1008.09 1008.43 1008.92 1009.62 1010.29 1010.69 1011.01 1011.33 1011.83 1012.30 1012.53 1012.82 1013.14 1013.33 1013.58 1013.83 1013.95 1014.16 1014.39 1014.38 1014.45 1014.53 1014.34 1014.67 1014.68 1014.89 1015.12 1015.26 1015.22 1015.76 1015.89 1016.16 1016.07 1015.59 1015.05 1015.17 1014.71 1014.51 1014.00 1013.44 1013.16 1013.17 1013.29
1007.25 1007.92 1008.53 1009.06 1009.68 1010.30 1010.63 1010.97 1011.38 1011.77 1012.22 1012.50 1012.81 1013.09 1013.18 1013.27 1013.45 1013.73 1014.13 1014.18 1014.01 1013.80 1014.15 1014.38 1014.66 1014.62 1014.58 1014.46 1014.73 1014.93 1015.18 1015.53 1015.78 1015.53 1014.48 1014.88 1014.58 1014.63 1014.28 1013.51 1013.21 1013.08 1013.16
Wind_Speed
4 4 3 3 3 3 4 3 4 4 4 5 4 4 5 4 4 3 1 7 7 10 11 10 9 8 8 9 8 8 10 11 9 8 10 10 11 11 11 12 12 12 13
6 5 4 4 3 3 3 4 5 4 4 4 4 3 4 4 4 3 3 2 1 6 11 12 11 10 9 8 8 7 9 12 10 9 9 10 11 10 10 11 12 12 12
8 8 5 4 4 4 5 4 4 4 4 3 4 4 3 3 3 4 3 3 2 1 7 11 11 9 10 9 9 9 10 12 12 11 10 11 11 10 9 9 10 10 10
8 6 5 5 5 4 5 3 3 4 4 4 4 3 2 2 1 3 3 4 3 1 4 9 10 11 11 11 10 10 10 11 12 12 11 11 11 10 9 9 8 9 9
7 6 5 4 6 4 5 5 2 2 3 3 3 3 3 4 4 3 4 4 5 3 2 5 8 9 11 12 12 11 11 11 12 13 12 12 12 11 10 9 9 8 8
6 6 5 5 6 5 4 4 4 2 3 3 1 3 3 4 3 4 5 3 3 5 5 4 2 3 10 13 13 12 13 12 12 14 13 12 11 11 11 10 10 9 8
6 6 4 5 6 8 8 8 3 4 3 3 1 2 4 5 4 4 4 4 5 4 5 5 3 2 3 12 12 14 15 15 14 15 14 13 12 12 12 11 11 10 9
7 6 7 5 7 5 6 7 5 3 2 4 3 1 2 1 4 5 5 6 7 4 4 3 3 5 4 3 7 13 15 16 17 16 16 15 14 13 13 12 11 11 10
8 6 7 6 7 6 7 7 7 7 4 4 6 4 1 2 2 1 5 5 5 4 5 6 6 7 5 5 7 9 15 15 16 18 17 16 15 15 15 14 13 13 12
9 8 8 7 7 5 6 8 7 4 4 3 2 4 2 2 1 3 1 4 4 5 7 6 6 6 6 6 10 12 11 14 16 18 18 19 17 17 17 16 15 14 13
8 10 8 7 7 6 6 8 7 7 5 3 4 3 4 4 6 3 2 3 2 5 6 7 8 6 8 8 6 9 18 15 17 18 18 19 19 20 20 20 18 18 17
6 6 7 7 8 8 7 8 8 9 9 6 3 5 4 4 4 4 4 4 5 4 7 6 7 6 7 7 9 13 16 18 19 19 19 20 20 21 22 22 21 20 19
5 9 8 7 6 7 7 6 7 8 9 8 9 7 6 7 4 2 3 3 4 4 3 5 6 6 7 7 8 13 13 15 14 16 18 19 20 21 22 22 21 21 22
7 8 9 10 10 8 9 7 6 7 8 9 11 8 6 7 5 4 4 4 2 3 2 5 4 8 8 7 10 16 10 13 13 15 16 18 18 19 22 22 21 21 21
8 8 10 12 12 10 10 8 7 8 6 7 9 9 8 6 6 6 5 4 4 3 3 4 4 7 7 6 10 9 10 12 14 13 14 15 17 19 21 20 20 20 19
7 7 7 9 10 10 11 10 8 6 6 6 5 6 6 3 4 4 4 4 4 4 4 3 3 2 5 5 8 9 9 11 14 15 15 17 19 20 21 21 21 21 20
7 7 7 8 9 10 9 9 8 6 7 6 5 5 6 4 3 3 3 3 4 4 5 3 2 1 4 6 5 7 7 6 6 13 14 15 16 17 20 21 20 21 21
7 8 8 8 8 9 9 10 9 7 6 6 5 5 5 3 5 5 3 5 4 5 5 6 2 3 6 5 5 5 6 6 7 12 14 15 17 19 19 19 19 19 19
8 7 7 9 9 9 9 9 9 7 7 7 6 6 6 6 5 4 5 5 3 3 4 3 3 1 3 2 3 4 4 6 5 10 12 15 16 18 18 19 20 19 19
11 9 10 8 8 7 8 8 8 7 7 6 7 7 7 6 6 6 5 6 4 4 3 3 3 3 3 2 2 3 3 4 6 7 10 10 13 18 20 21 22 23 21
11 11 11 9 9 8 7 8 8 8 7 6 6 6 7 7 9 7 4 5 5 4 3 3 3 2 2 2 3 2 3 2 4 5 5 6 6 7 9 16 17 21 21
10 10 11 11 9 8 11 14 9 6 7 6 6 6 4 6 7 8 10 9 7 5 4 3 2 3 4 2 2 3 2 1 3 2 2 4 5 7 7 7 14 19 19
10 11 11 10 10 9 13 14 13 6 7 7 6 5 4 5 7 6 8 8 7 8 6 5 5 6 3 5 3 3 4 3 4 3 1 4 3 7 6 7 15 18 19
13 12 12 11 10 8 11 12 13 6 6 7 7 7 6 6 7 7 6 6 7 6 8 6 7 8 6 4 5 4 3 3 3 4 3 4 2 4 3 6 13 16 17
11 11 9 10 8 7 12 13 9 5 5 5 5 5 6 6 8 10 6 7 7 7 7 12 12 10 7 11 7 2 4 2 3 3 3 3 3 3 3 4 4 12 14
12 8 8 8 9 8 11 12 11 5 5 4 4 5 10 8 10 9 6 6 5 7 4 3 4 6 10 9 8 8 3 4 3 3 4 4 1 2 4 2 2 2 3
Wind_Direction
157 149 167 167 155 150 145 156 137 121 117 117 103 103 90 101 85 111 112 174 189 165 168 174 174 179 174 163 167 163 149 136 133 127 120 112 103 98 96 95 98 103 100
160 170 180 169 172 154 152 139 142 155 145 121 115 103 106 104 98 102 120 85 198 192 179 180 184 184 185 189 183 181 163 149 146 140 132 124 116 119 119 116 113 109 107
177 167 173 162 183 161 141 140 133 113 109 92 116 120 104 126 131 156 173 163 156 201 210 196 188 195 190 202 199 190 176 166 158 153 150 141 133 132 131 128 122 120 118
162 147 158 175 178 159 151 161 139 130 128 164 168 177 148 171 165 170 203 236 199 241 263 226 207 197 203 204 208 200 190 182 170 163 165 160 151 148 143 141 138 134 132
156 149 156 160 150 145 149 147 142 128 166 217 173 166 192 185 201 208 228 231 200 220 195 253 226 209 210 222 209 207 197 189 179 172 177 175 167 161 161 157 154 153 149
165 149 152 152 162 136 131 148 157 180 168 184 233 246 223 227 210 210 230 245 232 220 217 204 268 235 219 227 224 213 209 199 193 189 180 183 180 175 172 170 168 173 172
169 167 152 145 163 171 177 175 145 174 212 172 141 241 252 232 211 211 215 236 221 226 229 205 185 229 254 226 229 220 211 205 200 198 193 188 191 185 182 180 177 184 191
179 173 160 160 170 168 163 170 156 167 214 180 179 135 290 295 222 217 193 210 222 190 226 231 219 219 211 237 221 226 217 211 207 204 203 199 196 195 190 189 189 192 198
185 186 174 164 167 167 182 181 183 184 172 185 206 159 189 253 322 230 207 204 193 195 217 220 215 219 206 209 238 231 223 218 215 207 208 207 203 203 200 198 196 201 204
193 193 185 174 168 176 179 193 194 185 175 181 176 229 240 147 244 319 259 234 198 195 210 218 233 224 208 217 221 226 233 215 219 213 210 209 207 207 207 208 204 206 210
195 193 189 183 187 185 192 191 190 204 198 175 169 157 210 223 220 194 253 240 200 218 208 205 225 214 211 218 216 224 225 218 214 219 213 215 211 214 217 215 215 213 216
208 204 193 191 202 205 193 194 197 205 203 205 194 207 195 187 191 182 208 223 223 230 218 211 211 220 222 221 222 222 222 223 215 214 216 215 215 214 220 221 221 221 222
200 214 199 199 205 210 205 197 187 201 211 210 208 222 220 221 197 188 159 221 227 233 202 224 215 208 218 221 215 224 230 218 217 216 215 217 218 218 220 222 222 226 226
203 209 203 206 211 208 216 210 209 208 193 211 218 220 224 222 211 198 182 177 249 251 234 238 205 209 216 213 215 219 229 231 217 220 217 216 219 224 222 220 222 224 227
214 198 201 211 214 206 207 209 215 224 198 208 221 220 215 220 209 202 186 184 173 240 261 234 223 212 215 202 218 214 215 226 219 215 214 219 220 224 226 221 218 222 225
210 204 199 207 215 210 203 206 217 218 209 220 218 206 221 227 216 198 194 180 196 185 237 219 228 232 208 208 213 215 217 212 220 216 214 218 222 225 224 223 217 220 221
198 204 213 209 204 206 203 203 216 211 209 226 222 222 235 189 201 208 188 204 203 185 241 277 234 290 217 213 222 209 213 208 228 229 221 217 218 223 226 226 220 219 222
209 208 202 206 202 201 201 203 215 215 217 223 234 217 238 180 201 205 214 226 206 195 208 243 255 246 223 212 220 215 212 214 216 220 218 220 213 216 222 225 225 220 217
213 214 203 208 206 207 197 203 207 203 207 209 209 207 225 201 208 199 207 211 210 205 193 203 247 257 251 181 210 220 209 227 237 240 223 226 219 217 219 223 227 225 219
210 212 215 209 206 198 195 195 198 205 203 201 201 206 216 200 202 204 209 211 203 206 206 222 233 244 246 255 202 219 239 213 240 240 240 221 215 220 218 222 226 228 226
213 213 213 209 204 200 202 202 207 201 195 205 208 214 207 200 202 198 188 209 195 203 200 222 240 259 261 225 206 226 235 241 248 215 224 232 225 226 232 231 234 232 232
210 209 212 209 201 208 203 210 191 188 193 200 215 221 219 207 225 212 197 186 184 201 214 197 222 221 246 243 220 216 222 217 288 255 208 263 192 232 231 219 220 225 223
201 206 208 206 204 200 202 214 197 188 189 197 197 204 212 216 213 210 213 200 207 218 204 191 215 219 233 215 215 256 243 213 232 263 154 265 204 248 236 231 222 220 223
204 203 206 204 202 202 201 204 203 200 187 196 187 195 201 222 216 194 197 214 225 221 226 219 222 248 224 229 212 202 228 248 284 270 192 267 234 251 254 239 227 225 224
205 202 195 189 187 193 192 197 175 184 188 192 205 205 206 222 230 213 191 212 223 240 233 222 223 244 239 241 225 147 240 216 286 267 222 220 243 276 271 270 245 232 230
207 189 178 172 176 194 194 188 175 172 179 172 188 230 222 216 229 199 199 218 222 235 234 247 232 249 252 242 221 214 205 201 199 300 247 193 230 200 308 278 283 260 262